EW7678 Weather Reports


Display with metric or nautical units.
time (UTC)temp
F
wind
direction
speed
MPH
gust
MPH
rain 1hr
in
rain 24hr
in
rain mn
in
humidity
%
barometer
mb
20260503191605 74 91 1.0 4.0 0.00 0.00 0.00 31 1013.9
20260503190056 73 97 1.0 3.0 0.00 0.00 0.00 32 1014.2
20260503184604 72 66 1.0 5.0 0.00 0.00 0.00 33 1014.4
20260503183057 72 54 0.0 3.0 0.00 0.00 0.00 34 1014.6
20260503181544 70 124 1.0 6.0 0.00 0.00 0.00 36 1014.8
20260503180043 69 314 0.0 2.0 0.00 0.00 0.00 35 1015.1
20260503174537 68 145 0.0 2.0 0.00 0.00 0.00 38 1015.4
20260503173033 67 332 1.0 3.0 0.00 0.00 0.00 38 1015.7
20260503171530 66 319 0.0 3.0 0.00 0.00 0.00 40 1015.8
20260503081512 45 296 0.0 0.0 0.00 0.00 0.00 79 1015.9
20260503071507 46 296 0.0 0.0 0.00 0.00 0.00 75 1015.6
20260503070107 46 296 0.0 0.0 0.00 0.00 0.00 75 1015.7
20260503060103 48 296 0.0 0.0 0.00 0.00 0.00 72 1015.6
20260503054603 49 296 0.0 0.0 0.00 0.00 0.00 69 1015.5
20260503053056 49 296 0.0 0.0 0.00 0.00 0.00 70 1015.4
20260503051558 50 296 0.0 0.0 0.00 0.00 0.00 68 1015.3
20260503050055 51 296 0.0 0.0 0.00 0.00 0.00 66 1015.1
20260503044604 53 296 0.0 0.0 0.00 0.00 0.00 65 1014.9
20260503043059 54 296 0.0 0.0 0.00 0.00 0.00 63 1014.8
20260503041554 56 296 0.0 0.0 0.00 0.00 0.00 60 1014.6
20260503040053 57 296 0.0 0.0 0.00 0.00 0.00 57 1014.5
20260503034554 59 296 0.0 0.0 0.00 0.00 0.00 55 1014.2
20260503033112 61 296 0.0 0.0 0.00 0.00 0.00 51 1013.9
20260503031559 63 296 0.0 0.0 0.00 0.00 0.00 48 1013.8
20260503030104 65 296 0.0 0.0 0.00 0.00 0.00 42 1013.8
20260503024610 69 296 0.0 1.0 0.00 0.00 0.00 40 1013.7
20260503023049 70 308 0.0 0.0 0.00 0.00 0.00 35 1013.6
20260503021553 72 307 0.0 1.0 0.00 0.00 0.00 32 1013.7
20260503020049 74 308 0.0 1.0 0.00 0.00 0.00 31 1013.7
20260503014546 76 102 0.0 2.0 0.00 0.00 0.00 28 1013.8
20260503013045 77 307 0.0 1.0 0.00 0.00 0.00 23 1013.9
20260503011546 78 286 0.0 4.0 0.00 0.00 0.00 21 1014.0
20260503010044 79 231 0.0 2.0 0.00 0.00 0.00 21 1014.0
20260503004546 80 124 0.0 3.0 0.00 0.00 0.00 21 1013.9
20260503003041 81 29 0.0 3.0 0.00 0.00 0.00 20 1014.1
20260503001542 80 50 0.0 3.0 0.00 0.00 0.00 21 1014.3
20260503000038 80 294 1.0 4.0 0.00 0.00 0.00 21 1014.4
20260502234536 81 309 0.0 4.0 0.00 0.00 0.00 20 1014.5
20260502233041 81 75 2.0 4.0 0.00 0.00 0.00 20 1014.7
20260502231543 81 187 0.0 4.0 0.00 0.00 0.00 21 1014.9
20260502230028 81 86 2.0 4.0 0.00 0.00 0.00 21 1015.1
20260502224525 81 127 2.0 5.0 0.00 0.00 0.00 21 1015.3
20260502223024 82 78 2.0 5.0 0.00 0.00 0.00 21 1015.5
20260502221520 81 108 2.0 6.0 0.00 0.00 0.00 22 1015.6
20260502220022 81 115 0.0 5.0 0.00 0.00 0.00 21 1015.8
20260502214516 81 119 3.0 6.0 0.00 0.00 0.00 22 1016.1
20260502213012 81 229 1.0 5.0 0.00 0.00 0.00 22 1016.3
20260502211519 81 340 1.0 4.0 0.00 0.00 0.00 23 1016.4
20260502210008 80 122 1.0 5.0 0.00 0.00 0.00 25 1016.6
20260502204505 79 96 2.0 4.0 0.00 0.00 0.00 24 1016.8
20260502203113 78 129 1.0 4.0 0.00 0.00 0.00 25 1017.1
20260502201557 77 138 1.0 4.0 0.00 0.00 0.00 27 1017.3
20260502200054 76 80 1.0 4.0 0.00 0.00 0.00 31 1017.5
20260502194551 74 124 1.0 4.0 0.00 0.00 0.00 33 1017.8
20260502193049 74 24 1.0 3.0 0.00 0.00 0.00 34 1018.1